Fremont, MI

2:25 PM EDT on September 18, 2019 (GMT -0400)
Fremont

Weather History for KFFX - July, 2019

Change the Weather History Date:

Friday, July 19, 2019

  Actual Average (KMKG) Record (KMKG)
Temperature  
Mean Temperature 82 °F -  
Max Temperature 92 °F 81 °F 94 °F (2011)
Min Temperature 73 °F 63 °F 44 °F (1912)
Cooling Degree Days 18    
Growing Degree Days 32 (Base 50)    
Moisture  
Dew Point 71 °F    
Average Humidity 73    
Maximum Humidity 98    
Minimum Humidity 31    
Precipitation  
Precipitation 0.00 in - - ()
Sea Level Pressure  
Sea Level Pressure 29.80 in    
Wind  
Wind Speed 5 mph (SW)    
Max Wind Speed 17 mph    
Max Gust Speed 23 mph    
Visibility 10 miles    
Events Rain    
Averages and records for this station are not official NWS values.
T = Trace of Precipitation, MM = Missing Value Source: NWS Daily Summary

Daily Weather History Graph

Daily Weather History Graph

Search for Another Location

Airport or City:

Astronomy

Jul. 19, 2019 Rise Set
Actual Time 6:20 AM EDT 9:19 PM EDT
Civil Twilight 5:46 AM EDT 9:53 PM EDT
Nautical Twilight 5:02 AM EDT 10:36 PM EDT
Astronomical Twilight 4:11 AM EDT 11:27 PM EDT
Moon 11:13 PM EDT (7/19) 8:49 AM EDT (7/19)
Length of Visible Light 16h 07m
Length of Day
14h 59m
Waning Gibbous, 93% of the Moon is Illuminated
Jul 19
Waning Gibbous
Jul 24
Last Quarter
Jul 31
New
Aug 7
First Quarter
Aug 15
Full

Hourly Weather History & Observations

Time (EDT) Temp. Heat Index Dew Point Humidity Pressure Visibility Wind Dir Wind Speed Gust Speed Precip Events Conditions
12:15 AM 73.4 °F - 71.8 °F 95% 29.79 in 10.0 mi South 3.5 mph - N/A   Clear
12:16 AM 73.4 °F - 71.8 °F 95% 29.79 in 10.0 mi Calm Calm - N/A   Clear
12:39 AM 73.4 °F - 72.0 °F 95% 29.79 in 10.0 mi Calm Calm - N/A   Scattered Clouds
12:57 AM 73.4 °F - 72.0 °F 95% 29.79 in 10.0 mi Calm Calm - N/A   Mostly Cloudy
1:15 AM 73.2 °F - 72.0 °F 96% 29.79 in 10.0 mi Calm Calm - N/A   Scattered Clouds
1:35 AM 73.0 °F - 72.1 °F 97% 29.79 in 10.0 mi Calm Calm - N/A   Scattered Clouds
1:55 AM 73.6 °F - 72.5 °F 96% 29.79 in 10.0 mi South 3.5 mph - N/A   Mostly Cloudy
2:18 AM 73.8 °F - 72.7 °F 96% 29.80 in 10.0 mi Calm Calm - N/A   Overcast
2:36 AM 74.3 °F - 72.9 °F 95% 29.78 in 10.0 mi South 3.5 mph - N/A   Mostly Cloudy
2:55 AM 74.7 °F - 73.0 °F 95% 29.78 in 10.0 mi SSW 3.5 mph - N/A   Mostly Cloudy
2:56 AM 74.7 °F - 73.0 °F 95% 29.78 in 10.0 mi SSW 3.5 mph - N/A   Mostly Cloudy
3:15 AM 73.8 °F - 72.7 °F 96% 29.78 in 10.0 mi SSW 3.5 mph - N/A   Scattered Clouds
3:16 AM 73.8 °F - 72.7 °F 96% 29.78 in 10.0 mi SSW 3.5 mph - N/A   Scattered Clouds
3:39 AM 75.2 °F - 73.8 °F 95% 29.77 in 10.0 mi South 3.5 mph - N/A   Scattered Clouds
3:57 AM 75.6 °F - 74.3 °F 96% 29.76 in 10.0 mi South 4.6 mph - N/A   Scattered Clouds
4:15 AM 76.1 °F - 74.8 °F 96% 29.77 in 10.0 mi SSW 5.8 mph - N/A   Mostly Cloudy
4:16 AM 76.1 °F - 74.8 °F 96% 29.77 in 10.0 mi SSW 5.8 mph - N/A   Mostly Cloudy
4:35 AM 76.1 °F - 75.2 °F 97% 29.76 in 10.0 mi SSW 4.6 mph - N/A   Mostly Cloudy
4:36 AM 76.1 °F - 75.2 °F 97% 29.76 in 10.0 mi SSW 4.6 mph - N/A   Mostly Cloudy
4:55 AM 76.5 °F - 75.6 °F 97% 29.76 in 10.0 mi South 4.6 mph - N/A   Mostly Cloudy
5:18 AM 76.6 °F - 75.7 °F 97% 29.77 in 10.0 mi SSW 3.5 mph - N/A   Scattered Clouds
5:36 AM 76.6 °F - 76.1 °F 98% 29.78 in 10.0 mi SW 4.6 mph - N/A   Scattered Clouds
5:55 AM 77.2 °F - 76.1 °F 96% 29.78 in 10.0 mi SW 6.9 mph - N/A   Scattered Clouds
6:15 AM 77.7 °F - 76.5 °F 96% 29.78 in 10.0 mi SW 11.5 mph - N/A Rain Light Rain
6:16 AM 77.9 °F - 76.6 °F 96% 29.78 in 10.0 mi SW 10.4 mph - N/A Rain Light Rain
6:39 AM 78.1 °F - 77.0 °F 96% 29.78 in 10.0 mi SW 10.4 mph - N/A   Light Drizzle
6:57 AM 78.1 °F - 77.0 °F 96% 29.77 in 10.0 mi SW 8.1 mph - N/A   Overcast
7:16 AM 78.3 °F - 77.0 °F 96% 29.75 in 10.0 mi SW 11.5 mph 19.6 mph N/A   Scattered Clouds
7:35 AM 78.3 °F - 77.0 °F 96% 29.77 in 10.0 mi WSW 9.2 mph - N/A   Scattered Clouds
7:55 AM 78.3 °F - 76.5 °F 94% 29.76 in 10.0 mi SSW 9.2 mph - N/A   Mostly Cloudy
8:18 AM 78.1 °F - 76.1 °F 94% 29.82 in 10.0 mi WSW 5.8 mph 16.1 mph N/A   Scattered Clouds
8:36 AM 77.7 °F - 75.6 °F 93% 29.83 in 10.0 mi WSW 10.4 mph - N/A   Mostly Cloudy
8:55 AM 77.2 °F - 75.4 °F 94% 29.81 in 10.0 mi SSW 6.9 mph - N/A   Scattered Clouds
9:15 AM 77.0 °F - 74.3 °F 91% 29.80 in 10.0 mi SSW 5.8 mph - N/A   Clear
9:39 AM 77.4 °F - 73.2 °F 87% 29.76 in 10.0 mi Calm Calm - N/A   Clear
9:57 AM 78.3 °F - 72.1 °F 81% 29.78 in 10.0 mi Calm Calm - N/A   Clear
10:15 AM 78.6 °F - 70.5 °F 76% 29.78 in 10.0 mi Calm Calm - N/A   Clear
10:16 AM 78.8 °F - 70.5 °F 76% 29.78 in 10.0 mi Calm Calm - N/A   Clear
10:35 AM 81.3 °F 85.4 °F 71.1 °F 71% 29.82 in 10.0 mi SSW 17.3 mph 23.0 mph N/A   Clear
10:36 AM 81.5 °F 85.5 °F 71.1 °F 70% 29.82 in 10.0 mi SW 16.1 mph 23.0 mph N/A   Clear
10:55 AM 81.7 °F 86.0 °F 71.6 °F 71% 29.83 in 10.0 mi SW 16.1 mph 21.9 mph N/A   Scattered Clouds
11:18 AM 84.4 °F 87.9 °F 68.5 °F 59% 29.82 in 10.0 mi SW 15.0 mph 21.9 mph N/A   Scattered Clouds
11:36 AM 86.2 °F 88.4 °F 66.0 °F 51% 29.82 in 10.0 mi SSW 11.5 mph - N/A   Clear
11:55 AM 88.2 °F 89.6 °F 64.2 °F 45% 29.82 in 10.0 mi SSW 10.4 mph - N/A   Clear
11:56 AM 88.2 °F 89.6 °F 64.2 °F 45% 29.82 in 10.0 mi SSW 10.4 mph - N/A   Clear
12:15 PM 89.8 °F 90.4 °F 62.2 °F 40% 29.82 in 7.0 mi SSW 8.1 mph - N/A   Clear
12:16 PM 90.0 °F 90.3 °F 62.2 °F 39% 29.83 in 7.0 mi SW 9.2 mph - N/A   Clear
12:39 PM 90.7 °F 91.0 °F 61.7 °F 38% 29.82 in 7.0 mi SW 9.2 mph - N/A   Clear
12:57 PM 90.9 °F 90.9 °F 61.5 °F 37% 29.83 in 10.0 mi SW 9.2 mph - N/A   Clear
1:15 PM 92.5 °F 91.3 °F 57.7 °F 31% 29.83 in 10.0 mi SW 11.5 mph 16.1 mph N/A   Scattered Clouds
1:16 PM 92.5 °F 91.6 °F 58.3 °F 32% 29.83 in 10.0 mi SW 10.4 mph 16.1 mph N/A   Scattered Clouds
1:35 PM 92.3 °F 93.8 °F 63.7 °F 39% 29.83 in 10.0 mi WSW 9.2 mph - N/A   Clear
1:36 PM 92.3 °F 93.4 °F 63.5 °F 38% 29.83 in 10.0 mi WSW 9.2 mph - N/A   Clear
1:55 PM 92.1 °F 92.1 °F 61.0 °F 35% 29.82 in 10.0 mi SW 9.2 mph - N/A   Clear
2:18 PM 90.7 °F 91.0 °F 61.9 °F 38% 29.82 in 10.0 mi SW 10.4 mph - N/A   Clear
2:36 PM 90.7 °F 91.7 °F 63.3 °F 40% 29.82 in 10.0 mi SW 11.5 mph - N/A   Clear
2:55 PM 89.6 °F 91.5 °F 65.3 °F 44% 29.82 in 10.0 mi SSW 9.2 mph - N/A   Clear
2:56 PM 89.6 °F 91.5 °F 65.3 °F 44% 29.82 in 10.0 mi SW 10.4 mph - N/A   Clear
3:15 PM 89.4 °F 92.3 °F 66.9 °F 47% 29.82 in 10.0 mi WSW 10.4 mph - N/A   Mostly Cloudy
3:16 PM 89.6 °F 92.6 °F 67.1 °F 47% 29.82 in 10.0 mi SW 11.5 mph - N/A   Mostly Cloudy
3:39 PM 90.1 °F 94.0 °F 68.0 °F 48% 29.82 in 10.0 mi WSW 8.1 mph - N/A   Scattered Clouds
3:57 PM 90.1 °F 96.3 °F 70.7 °F 53% 29.82 in 10.0 mi WSW 10.4 mph - N/A   Clear
4:15 PM 89.8 °F 95.1 °F 70.2 °F 52% 29.81 in 10.0 mi SW 11.5 mph - N/A   Scattered Clouds
4:16 PM 89.8 °F 94.6 °F 69.6 °F 51% 29.81 in 10.0 mi SW 12.7 mph - N/A   Scattered Clouds
4:35 PM 89.8 °F 92.9 °F 67.3 °F 47% 29.82 in 10.0 mi SW 11.5 mph - N/A   Scattered Clouds
4:36 PM 89.8 °F 93.3 °F 67.5 °F 48% 29.82 in 10.0 mi SW 12.7 mph 17.3 mph N/A   Scattered Clouds
4:55 PM 87.8 °F 93.0 °F 70.2 °F 56% 29.82 in 10.0 mi WSW 11.5 mph 18.4 mph N/A   Mostly Cloudy
5:00 PM 87.1 °F 92.4 °F 70.9 °F 58% 29.82 in 10.0 mi SW 11.5 mph - N/A   Mostly Cloudy
5:18 PM 86.0 °F 92.6 °F 72.7 °F 64% 29.83 in 10.0 mi WSW 8.1 mph - N/A   Overcast
5:36 PM 85.5 °F 92.2 °F 72.9 °F 66% 29.83 in 10.0 mi West 9.2 mph 16.1 mph N/A   Overcast
5:55 PM 84.7 °F 91.0 °F 72.9 °F 67% 29.82 in 10.0 mi WSW 6.9 mph - N/A   Overcast
6:15 PM 86.7 °F 93.7 °F 72.7 °F 63% 29.81 in 10.0 mi West 6.9 mph - N/A   Mostly Cloudy
6:16 PM 86.9 °F 93.7 °F 72.7 °F 62% 29.81 in 10.0 mi WSW 6.9 mph - N/A   Mostly Cloudy
6:39 PM 85.6 °F 92.2 °F 72.9 °F 65% 29.80 in 10.0 mi SSW 10.4 mph 18.4 mph N/A   Mostly Cloudy
6:57 PM 85.1 °F 91.8 °F 72.9 °F 67% 29.80 in 10.0 mi SW 5.8 mph - N/A   Overcast
7:15 PM 85.1 °F 91.8 °F 72.9 °F 67% 29.79 in 10.0 mi SW 5.8 mph - N/A   Overcast
7:35 PM 84.4 °F 90.6 °F 72.9 °F 68% 29.79 in 10.0 mi WSW 3.5 mph - N/A   Overcast
7:55 PM 84.2 °F 90.3 °F 72.7 °F 68% 29.79 in 10.0 mi SW 3.5 mph - N/A   Overcast
8:00 PM 84.2 °F 90.6 °F 72.9 °F 69% 29.79 in 10.0 mi SSW 4.6 mph - N/A   Overcast
8:18 PM 84.0 °F 90.2 °F 72.9 °F 69% 29.80 in 10.0 mi Calm Calm - N/A   Overcast
8:36 PM 84.0 °F 90.2 °F 73.0 °F 69% 29.81 in 10.0 mi Calm Calm - N/A   Overcast
8:55 PM 83.3 °F 89.3 °F 73.2 °F 71% 29.82 in 10.0 mi Calm Calm - N/A   Overcast
9:15 PM 82.6 °F 88.6 °F 73.4 °F 74% 29.83 in 10.0 mi SSE 4.6 mph - N/A   Overcast
9:39 PM 81.9 °F 87.5 °F 73.6 °F 76% 29.82 in 10.0 mi SSE 4.6 mph - N/A   Scattered Clouds
9:57 PM 81.5 °F 86.9 °F 73.6 °F 77% 29.81 in 10.0 mi SSE 4.6 mph - N/A   Scattered Clouds
10:15 PM 81.1 °F 86.4 °F 73.8 °F 78% 29.80 in 10.0 mi SSE 4.6 mph - N/A   Clear
10:16 PM 81.1 °F 86.4 °F 73.8 °F 78% 29.80 in 10.0 mi South 4.6 mph - N/A   Clear
10:35 PM 81.1 °F 86.6 °F 73.9 °F 79% 29.82 in 10.0 mi South 3.5 mph - N/A   Clear
10:55 PM 80.4 °F 85.5 °F 74.3 °F 82% 29.83 in 10.0 mi Calm Calm - N/A   Clear
11:18 PM 79.9 °F - 75.4 °F 86% 29.84 in 10.0 mi Calm Calm - N/A   Clear
11:36 PM 78.8 °F - 75.7 °F 90% 29.83 in 10.0 mi Calm Calm - N/A   Clear
11:55 PM 78.6 °F - 76.3 °F 92% 29.83 in 10.0 mi Calm Calm - N/A   Scattered Clouds